UAL2321 KMCO-KEWR

Flight info

Callsign UAL2321
Flight time 2h 1m
Altitude 33000
Route FATHE4 VIYAP Q87 ALWZZ OGRAE Q99 QUART PHLBO4
Aircraft B739/M-SDE2E3FGHIRWXY/LB1

Departure

Time 2026-04-25 17:59
Airport Orlando International Airport (KMCO)

Arrival

Time 2026-04-25 20:00
Airport Newark Liberty International Airport (KEWR)
Time Latitude Longitude Altitude Speed Heading
2026-04-25 17:35 28.42570 -81.31500 93 ft 0 kts
2026-04-25 17:51 28.42566 -81.31501 93 ft 3 kts
2026-04-25 17:51 28.42540 -81.31507 93 ft 4 kts 22°
2026-04-25 17:51 28.42517 -81.31522 94 ft 4 kts 49°
2026-04-25 17:52 28.42506 -81.31543 95 ft 1 kts 77°
2026-04-25 17:52 28.42506 -81.31545 94 ft 1 kts 77°
2026-04-25 17:52 28.42505 -81.31548 94 ft 0 kts 77°
2026-04-25 17:55 28.42506 -81.31547 94 ft 1 kts 77°
2026-04-25 17:55 28.42516 -81.31496 93 ft 16 kts 77°
2026-04-25 17:55 28.42490 -81.31360 93 ft 19 kts 134°
2026-04-25 17:55 28.42357 -81.31252 95 ft 25 kts 126°
2026-04-25 17:56 28.42316 -81.31027 93 ft 37 kts 96°
2026-04-25 17:56 28.42334 -81.30702 96 ft 43 kts 86°
2026-04-25 17:56 28.42357 -81.30334 93 ft 49 kts 88°
2026-04-25 17:56 28.42360 -81.29960 93 ft 46 kts 90°
2026-04-25 17:57 28.42464 -81.29796 96 ft 31 kts 359°
2026-04-25 17:57 28.42702 -81.29798 94 ft 35 kts 359°
2026-04-25 17:57 28.42937 -81.29800 96 ft 33 kts 359°
2026-04-25 17:57 28.43017 -81.29801 95 ft 35 kts 360°
2026-04-25 17:58 28.43421 -81.29805 96 ft 34 kts 359°
2026-04-25 17:58 28.43537 -81.29789 95 ft 6 kts 35°
2026-04-25 17:58 28.43551 -81.29706 95 ft 17 kts 91°
2026-04-25 17:58 28.43517 -81.29592 97 ft 16 kts 157°
2026-04-25 17:59 28.43289 -81.29584 98 ft 66 kts 179°
2026-04-25 17:59 28.42254 -81.29573 95 ft 153 kts 179°
2026-04-25 17:59 28.41473 -81.29565 245 ft 174 kts 180°
2026-04-25 17:59 28.40186 -81.29573 787 ft 196 kts 181°
2026-04-25 18:00 28.38710 -81.29419 1065 ft 232 kts 164°
2026-04-25 18:00 28.37229 -81.28591 1710 ft 244 kts 146°
2026-04-25 18:00 28.35768 -81.27500 2342 ft 256 kts 148°
2026-04-25 18:00 28.34304 -81.26391 3287 ft 251 kts 140°
2026-04-25 18:01 28.33352 -81.24729 4035 ft 257 kts 105°
2026-04-25 18:01 28.33266 -81.22702 4783 ft 263 kts 79°
2026-04-25 18:01 28.33977 -81.20781 5481 ft 268 kts 52°
2026-04-25 18:01 28.35387 -81.19419 6197 ft 270 kts 24°
2026-04-25 18:02 28.37193 -81.18980 6848 ft 270 kts 356°
2026-04-25 18:02 28.39053 -81.19229 7660 ft 268 kts 348°
2026-04-25 18:02 28.40894 -81.19619 8398 ft 270 kts 347°
2026-04-25 18:02 28.42743 -81.20036 9148 ft 272 kts 347°
2026-04-25 18:03 28.44605 -81.20456 9876 ft 274 kts 347°
2026-04-25 18:03 28.46495 -81.20876 10428 ft 282 kts 347°
2026-04-25 18:03 28.48497 -81.21316 10599 ft 304 kts 347°
2026-04-25 18:03 28.50623 -81.21784 10978 ft 315 kts 347°
2026-04-25 18:04 28.52765 -81.22251 11671 ft 316 kts 347°
2026-04-25 18:04 28.54929 -81.22715 12405 ft 317 kts 347°
2026-04-25 18:04 28.57105 -81.23178 13102 ft 319 kts 347°
2026-04-25 18:04 28.59302 -81.23641 13774 ft 322 kts 347°
2026-04-25 18:05 28.61511 -81.24106 14361 ft 325 kts 347°
2026-04-25 18:05 28.63744 -81.24574 14936 ft 328 kts 347°
2026-04-25 18:05 28.66000 -81.25047 15535 ft 330 kts 347°
2026-04-25 18:05 28.68268 -81.25522 16116 ft 333 kts 347°
2026-04-25 18:06 28.70567 -81.26004 16664 ft 337 kts 347°
2026-04-25 18:06 28.72888 -81.26490 17232 ft 340 kts 347°
2026-04-25 18:06 28.75193 -81.26973 17793 ft 343 kts 347°
2026-04-25 18:06 28.77555 -81.27469 18335 ft 346 kts 347°
2026-04-25 18:07 28.79939 -81.27969 18814 ft 349 kts 347°
2026-04-25 18:07 28.82338 -81.28473 19302 ft 352 kts 347°
2026-04-25 18:07 28.84765 -81.28933 19815 ft 355 kts 351°
2026-04-25 18:07 28.87241 -81.29175 20285 ft 359 kts 354°
2026-04-25 18:08 28.89717 -81.29361 20743 ft 362 kts 354°
2026-04-25 18:08 28.92249 -81.29549 21227 ft 365 kts 354°
2026-04-25 18:08 28.94794 -81.29753 21698 ft 368 kts 354°
2026-04-25 18:08 28.97366 -81.29969 22167 ft 371 kts 354°
2026-04-25 18:09 28.99960 -81.30199 22572 ft 376 kts 353°
2026-04-25 18:09 29.02573 -81.30484 23039 ft 379 kts 353°
2026-04-25 18:09 29.05200 -81.30788 23493 ft 381 kts 353°
2026-04-25 18:09 29.06966 -81.30991 23747 ft 383 kts 353°
2026-04-25 18:10 29.10493 -81.31388 24300 ft 384 kts 353°
2026-04-25 18:10 29.13169 -81.31629 24740 ft 386 kts 355°
2026-04-25 18:10 29.15853 -81.31793 25173 ft 387 kts 356°
2026-04-25 18:10 29.18547 -81.31934 25585 ft 388 kts 356°
2026-04-25 18:11 29.21256 -81.32074 25987 ft 390 kts 356°
2026-04-25 18:11 29.23969 -81.32221 26373 ft 391 kts 356°
2026-04-25 18:11 29.26699 -81.32375 26756 ft 393 kts 355°
2026-04-25 18:11 29.29444 -81.32535 27098 ft 395 kts 355°
2026-04-25 18:12 29.32191 -81.32698 27521 ft 397 kts 355°
2026-04-25 18:12 29.34957 -81.32864 27982 ft 397 kts 355°
2026-04-25 18:12 29.37715 -81.33030 28396 ft 398 kts 355°
2026-04-25 18:12 29.40495 -81.33198 28780 ft 400 kts 355°
2026-04-25 18:13 29.43285 -81.33366 29151 ft 402 kts 355°
2026-04-25 18:13 29.46045 -81.33533 29513 ft 403 kts 355°
2026-04-25 18:13 29.48859 -81.33703 29871 ft 405 kts 355°
2026-04-25 18:14 29.54498 -81.34044 30443 ft 408 kts 355°
2026-04-25 18:14 29.57340 -81.34215 30692 ft 410 kts 355°
2026-04-25 18:14 29.60197 -81.34388 30955 ft 412 kts 355°
2026-04-25 18:14 29.63066 -81.34562 31205 ft 414 kts 355°
2026-04-25 18:15 29.65946 -81.34734 31473 ft 415 kts 355°
2026-04-25 18:15 29.68844 -81.34901 31726 ft 417 kts 355°
2026-04-25 18:15 29.71754 -81.35066 31966 ft 419 kts 355°
2026-04-25 18:15 29.74670 -81.35232 32187 ft 420 kts 355°
2026-04-25 18:16 29.77596 -81.35398 32411 ft 422 kts 355°
2026-04-25 18:16 29.80533 -81.35566 32630 ft 423 kts 355°
2026-04-25 18:16 29.86445 -81.35905 32960 ft 428 kts 355°
2026-04-25 18:17 29.89430 -81.36076 32960 ft 431 kts 355°
2026-04-25 18:17 29.95433 -81.36422 32974 ft 438 kts 355°
2026-04-25 18:18 30.01560 -81.36775 32976 ft 444 kts 355°
2026-04-25 18:18 30.07765 -81.37132 32966 ft 447 kts 355°
2026-04-25 18:19 30.13949 -81.37489 32960 ft 448 kts 355°
2026-04-25 18:19 30.20185 -81.37849 32953 ft 448 kts 355°
2026-04-25 18:20 30.26413 -81.38209 32950 ft 448 kts 355°
2026-04-25 18:20 30.32639 -81.38570 32952 ft 448 kts 355°
2026-04-25 18:21 30.38868 -81.38931 32953 ft 447 kts 355°
2026-04-25 18:21 30.45074 -81.39292 32953 ft 446 kts 355°
2026-04-25 18:22 30.51229 -81.39633 32949 ft 445 kts 355°
2026-04-25 18:22 30.57423 -81.39959 32946 ft 445 kts 355°
2026-04-25 18:23 30.63617 -81.40286 32946 ft 444 kts 355°
2026-04-25 18:23 30.69802 -81.40616 32942 ft 444 kts 355°
2026-04-25 18:24 30.75956 -81.40946 32944 ft 445 kts 355°
2026-04-25 18:24 30.82149 -81.41278 32941 ft 445 kts 355°
2026-04-25 18:25 30.88351 -81.41612 32938 ft 446 kts 355°
2026-04-25 18:25 30.94556 -81.41945 32929 ft 447 kts 355°
2026-04-25 18:26 31.00779 -81.42280 32933 ft 448 kts 355°
2026-04-25 18:26 31.06974 -81.42615 32926 ft 448 kts 355°
2026-04-25 18:27 31.13218 -81.42952 32932 ft 449 kts 355°
2026-04-25 18:27 31.19465 -81.43289 32923 ft 449 kts 355°
2026-04-25 18:28 31.25711 -81.42787 32939 ft 453 kts 10°
2026-04-25 18:28 31.31621 -81.40272 32941 ft 457 kts 22°
2026-04-25 18:29 31.40261 -81.35461 32924 ft 458 kts 22°
2026-04-25 18:30 31.51846 -81.29127 32913 ft 459 kts 22°
2026-04-25 18:30 31.57607 -81.25989 32922 ft 459 kts 22°
2026-04-25 18:31 31.63413 -81.22819 32910 ft 460 kts 22°
2026-04-25 18:31 31.69220 -81.19644 32898 ft 460 kts 22°
2026-04-25 18:32 31.75027 -81.16467 32904 ft 460 kts 22°
2026-04-25 18:32 31.80820 -81.13292 32883 ft 460 kts 22°
2026-04-25 18:33 31.86602 -81.10119 32886 ft 460 kts 22°
2026-04-25 18:33 31.92411 -81.06925 32877 ft 460 kts 22°
2026-04-25 18:34 31.98216 -81.03730 32881 ft 461 kts 22°
2026-04-25 18:34 32.04024 -81.00512 32891 ft 461 kts 23°
2026-04-25 18:35 32.09794 -80.97281 32893 ft 462 kts 23°
2026-04-25 18:35 32.15622 -80.94013 32922 ft 463 kts 23°
2026-04-25 18:36 32.21443 -80.90746 32924 ft 464 kts 23°
2026-04-25 18:36 32.27255 -80.87481 32930 ft 464 kts 23°
2026-04-25 18:37 32.33094 -80.84196 32928 ft 464 kts 23°
2026-04-25 18:37 32.38935 -80.80907 32911 ft 464 kts 23°
2026-04-25 18:38 32.44775 -80.77613 32909 ft 464 kts 23°
2026-04-25 18:38 32.50581 -80.74333 32910 ft 464 kts 23°
2026-04-25 18:39 32.56419 -80.71030 32911 ft 465 kts 23°
2026-04-25 18:39 32.62260 -80.67720 32908 ft 465 kts 23°
2026-04-25 18:40 32.68072 -80.64422 32905 ft 465 kts 23°
2026-04-25 18:40 32.73919 -80.61072 32903 ft 466 kts 24°
2026-04-25 18:41 32.79724 -80.57629 32904 ft 466 kts 24°
2026-04-25 18:41 32.85533 -80.54159 32901 ft 468 kts 24°
2026-04-25 18:42 32.89407 -80.51848 32916 ft 469 kts 24°
2026-04-25 18:42 32.97191 -80.47212 32895 ft 470 kts 24°
2026-04-25 18:43 33.03040 -80.43725 32895 ft 469 kts 24°
2026-04-25 18:43 33.08851 -80.40256 32886 ft 469 kts 24°
2026-04-25 18:44 33.14678 -80.36772 32890 ft 468 kts 24°
2026-04-25 18:44 33.20501 -80.33284 32889 ft 467 kts 24°
2026-04-25 18:45 33.26316 -80.29797 32891 ft 467 kts 24°
2026-04-25 18:45 33.32090 -80.26329 32895 ft 466 kts 24°
2026-04-25 18:46 33.37898 -80.22835 32895 ft 467 kts 24°
2026-04-25 18:46 33.43706 -80.19336 32888 ft 468 kts 24°
2026-04-25 18:47 33.48549 -80.16414 32893 ft 468 kts 24°
2026-04-25 18:47 33.54362 -80.12901 32891 ft 469 kts 24°
2026-04-25 18:48 33.60194 -80.09372 32886 ft 469 kts 24°
2026-04-25 18:48 33.66031 -80.05835 32885 ft 470 kts 24°
2026-04-25 18:49 33.71864 -80.02295 32888 ft 470 kts 24°
2026-04-25 18:49 33.77699 -79.98747 32875 ft 470 kts 24°
2026-04-25 18:50 33.83502 -79.95213 32880 ft 471 kts 24°
2026-04-25 18:50 33.89347 -79.91647 32878 ft 471 kts 24°
2026-04-25 18:51 33.94220 -79.88671 32877 ft 472 kts 24°
2026-04-25 18:51 34.01071 -79.84479 32886 ft 472 kts 24°
2026-04-25 18:52 34.06942 -79.80880 32891 ft 473 kts 24°
2026-04-25 18:52 34.12776 -79.77298 32897 ft 474 kts 24°
2026-04-25 18:53 34.18657 -79.73682 32886 ft 474 kts 24°
2026-04-25 18:53 34.24536 -79.70053 32890 ft 474 kts 24°
2026-04-25 18:54 34.33337 -79.64606 32884 ft 474 kts 24°
2026-04-25 18:55 34.39213 -79.60965 32877 ft 474 kts 24°
2026-04-25 18:55 34.45046 -79.57349 32874 ft 474 kts 24°
2026-04-25 18:56 34.50925 -79.53698 32880 ft 474 kts 24°
2026-04-25 18:56 34.56805 -79.50012 32881 ft 475 kts 26°
2026-04-25 18:57 34.62557 -79.46109 32874 ft 477 kts 27°
2026-04-25 18:57 34.68372 -79.42212 32865 ft 476 kts 22°
2026-04-25 18:58 34.74634 -79.39863 32877 ft 468 kts
2026-04-25 18:58 34.84283 -79.37932 32871 ft 468 kts
2026-04-25 18:59 34.97087 -79.35253 32849 ft 468 kts
2026-04-25 19:00 35.06713 -79.33186 32850 ft 468 kts
2026-04-25 19:01 35.16343 -79.31117 32884 ft 468 kts
2026-04-25 19:01 35.22768 -79.29735 32871 ft 468 kts
2026-04-25 19:02 35.32371 -79.27666 32860 ft 469 kts
2026-04-25 19:03 35.40941 -79.25813 32874 ft 470 kts
2026-04-25 19:03 35.48437 -79.24191 32864 ft 471 kts
2026-04-25 19:04 35.58134 -79.22086 32855 ft 471 kts
2026-04-25 19:05 35.71072 -79.19251 32853 ft 474 kts
2026-04-25 19:06 35.77258 -79.16305 32859 ft 483 kts 27°
2026-04-25 19:06 35.85513 -79.09148 32854 ft 486 kts 33°
2026-04-25 19:07 35.93768 -79.01825 32853 ft 486 kts 32°
2026-04-25 19:08 36.02013 -78.94616 32846 ft 485 kts 32°
2026-04-25 19:09 36.12118 -78.85767 32849 ft 485 kts 32°
2026-04-25 19:10 36.21269 -78.77722 32848 ft 485 kts 32°
2026-04-25 19:10 36.26773 -78.72872 32845 ft 486 kts 32°
2026-04-25 19:11 36.32301 -78.67993 32850 ft 487 kts 32°
2026-04-25 19:11 36.37803 -78.63126 32838 ft 488 kts 32°
2026-04-25 19:12 36.43325 -78.58233 32846 ft 488 kts 32°
2026-04-25 19:12 36.48951 -78.53548 32844 ft 486 kts 28°
2026-04-25 19:13 36.54707 -78.49122 32834 ft 486 kts 28°
2026-04-25 19:13 36.60459 -78.44690 32830 ft 486 kts 28°
2026-04-25 19:14 36.66151 -78.40240 32845 ft 486 kts 28°
2026-04-25 19:14 36.71882 -78.35731 32844 ft 488 kts 28°
2026-04-25 19:15 36.77623 -78.31204 32828 ft 488 kts 28°
2026-04-25 19:15 36.83366 -78.26671 32822 ft 488 kts 28°
2026-04-25 19:16 36.89067 -78.22163 32857 ft 487 kts 28°
2026-04-25 19:16 36.94831 -78.17598 32830 ft 487 kts 28°
2026-04-25 19:17 37.00510 -78.13090 32836 ft 487 kts 28°
2026-04-25 19:17 37.06240 -78.08521 32835 ft 487 kts 28°
2026-04-25 19:18 37.11961 -78.03947 32859 ft 487 kts 28°
2026-04-25 19:18 37.17689 -77.99361 32847 ft 488 kts 28°
2026-04-25 19:19 37.23413 -77.94770 32840 ft 488 kts 28°
2026-04-25 19:19 37.29098 -77.90202 32859 ft 488 kts 28°
2026-04-25 19:20 37.34827 -77.85589 32859 ft 489 kts 28°
2026-04-25 19:20 37.40556 -77.80973 32877 ft 489 kts 28°
2026-04-25 19:21 37.46299 -77.76383 32882 ft 489 kts 28°
2026-04-25 19:21 37.54880 -77.69509 32910 ft 489 kts 28°
2026-04-25 19:22 37.60610 -77.64867 32907 ft 490 kts 28°
2026-04-25 19:23 37.69221 -77.57875 32907 ft 490 kts 28°
2026-04-25 19:23 37.77801 -77.50902 32904 ft 490 kts 28°
2026-04-25 19:24 37.83550 -77.46230 32907 ft 490 kts 28°
2026-04-25 19:25 37.95008 -77.36886 32904 ft 489 kts 28°
2026-04-25 19:25 38.00699 -77.32234 32908 ft 490 kts 28°
2026-04-25 19:26 38.06442 -77.27538 32901 ft 490 kts 28°
2026-04-25 19:26 38.12171 -77.22843 32900 ft 490 kts 28°
2026-04-25 19:27 38.16001 -77.19700 32906 ft 490 kts 28°
2026-04-25 19:27 38.23630 -77.13424 32918 ft 490 kts 28°
2026-04-25 19:28 38.29322 -77.08720 32923 ft 491 kts 29°
2026-04-25 19:28 38.34869 -77.03573 32929 ft 494 kts 33°
2026-04-25 19:29 38.40315 -76.98216 32947 ft 494 kts 33°
2026-04-25 19:29 38.45744 -76.92910 32936 ft 495 kts 33°
2026-04-25 19:30 38.51226 -76.87605 32937 ft 495 kts 32°
2026-04-25 19:30 38.56721 -76.82292 32949 ft 494 kts 32°
2026-04-25 19:31 38.62201 -76.76980 32953 ft 494 kts 33°
2026-04-25 19:31 38.67680 -76.71655 32945 ft 494 kts 33°
2026-04-25 19:32 38.73145 -76.66333 32950 ft 493 kts 33°
2026-04-25 19:32 38.76771 -76.62798 32942 ft 493 kts 33°
2026-04-25 19:33 38.84043 -76.55693 32958 ft 493 kts 33°
2026-04-25 19:33 38.89492 -76.50356 32970 ft 493 kts 33°
2026-04-25 19:34 38.94936 -76.45012 32978 ft 492 kts 33°
2026-04-25 19:34 39.00387 -76.39652 32971 ft 492 kts 33°
2026-04-25 19:35 39.05690 -76.34105 33001 ft 495 kts 38°
2026-04-25 19:35 39.08242 -76.31125 32857 ft 498 kts 39°
2026-04-25 19:35 39.10829 -76.28048 32045 ft 507 kts 39°
2026-04-25 19:36 39.13414 -76.24964 31271 ft 507 kts 39°
2026-04-25 19:36 39.15989 -76.21915 30438 ft 508 kts 39°
2026-04-25 19:36 39.18605 -76.18841 29452 ft 510 kts 39°
2026-04-25 19:36 39.21241 -76.15758 28474 ft 511 kts 39°
2026-04-25 19:37 39.23881 -76.12670 27626 ft 509 kts 39°
2026-04-25 19:37 39.25609 -76.10645 27214 ft 504 kts 39°
2026-04-25 19:37 39.28190 -76.07616 26673 ft 495 kts 39°
2026-04-25 19:37 39.30708 -76.04655 26265 ft 484 kts 39°
2026-04-25 19:38 39.33172 -76.01754 25856 ft 475 kts 39°
2026-04-25 19:38 39.35598 -75.98898 25465 ft 470 kts 39°
2026-04-25 19:38 39.38027 -75.96039 25081 ft 473 kts 39°
2026-04-25 19:38 39.40439 -75.93198 24712 ft 475 kts 39°
2026-04-25 19:39 39.42881 -75.90318 24258 ft 474 kts 39°
2026-04-25 19:39 39.45305 -75.87452 23877 ft 469 kts 39°
2026-04-25 19:39 39.47702 -75.84615 23441 ft 465 kts 39°
2026-04-25 19:39 39.50077 -75.81801 23002 ft 460 kts 39°
2026-04-25 19:40 39.52428 -75.79014 22592 ft 456 kts 39°
2026-04-25 19:40 39.54755 -75.76253 22195 ft 451 kts 39°
2026-04-25 19:40 39.57064 -75.73510 21811 ft 447 kts 39°
2026-04-25 19:40 39.59354 -75.70788 21436 ft 444 kts 39°
2026-04-25 19:41 39.61593 -75.68124 21068 ft 442 kts 39°
2026-04-25 19:41 39.63855 -75.65431 20699 ft 439 kts 39°
2026-04-25 19:41 39.66102 -75.62754 20327 ft 438 kts 39°
2026-04-25 19:41 39.67586 -75.60984 20078 ft 437 kts 39°
2026-04-25 19:42 39.70578 -75.57400 19501 ft 438 kts 39°
2026-04-25 19:42 39.72815 -75.54708 19070 ft 438 kts 39°
2026-04-25 19:42 39.75042 -75.52022 18611 ft 435 kts 39°
2026-04-25 19:42 39.77247 -75.49359 18149 ft 430 kts 39°
2026-04-25 19:43 39.79400 -75.46758 17687 ft 424 kts 39°
2026-04-25 19:43 39.81548 -75.44161 17261 ft 419 kts 39°
2026-04-25 19:43 39.83674 -75.41590 16836 ft 415 kts 39°
2026-04-25 19:43 39.85787 -75.39035 16385 ft 412 kts 40°
2026-04-25 19:44 39.87880 -75.36500 15960 ft 410 kts 40°
2026-04-25 19:44 39.89967 -75.33971 15545 ft 407 kts 40°
2026-04-25 19:44 39.92035 -75.31463 15139 ft 405 kts 40°
2026-04-25 19:44 39.94071 -75.28992 14738 ft 404 kts 40°
2026-04-25 19:45 39.96128 -75.26493 14341 ft 403 kts 40°
2026-04-25 19:45 39.98180 -75.23998 13926 ft 403 kts 40°
2026-04-25 19:45 40.00231 -75.21501 13468 ft 403 kts 40°
2026-04-25 19:45 40.02274 -75.19012 13044 ft 402 kts 40°
2026-04-25 19:46 40.04318 -75.16518 12628 ft 401 kts 40°
2026-04-25 19:46 40.06352 -75.14035 12214 ft 400 kts 40°
2026-04-25 19:46 40.08375 -75.11563 11797 ft 394 kts 40°
2026-04-25 19:46 40.10335 -75.09166 11410 ft 387 kts 40°
2026-04-25 19:47 40.12285 -75.06779 11008 ft 371 kts 40°
2026-04-25 19:47 40.14103 -75.04550 10675 ft 356 kts 40°
2026-04-25 19:47 40.15873 -75.02380 10366 ft 341 kts 40°
2026-04-25 19:47 40.17569 -75.00300 10068 ft 329 kts 40°
2026-04-25 19:48 40.19205 -74.98296 9964 ft 311 kts 40°
2026-04-25 19:48 40.20754 -74.96391 9553 ft 306 kts 40°
2026-04-25 19:48 40.22270 -74.94515 9267 ft 297 kts 40°
2026-04-25 19:48 40.23771 -74.92674 8933 ft 293 kts 40°
2026-04-25 19:49 40.25256 -74.90855 8674 ft 294 kts 41°
2026-04-25 19:49 40.26228 -74.89593 8500 ft 298 kts 44°
2026-04-25 19:49 40.28138 -74.86908 8124 ft 302 kts 46°
2026-04-25 19:49 40.29557 -74.84881 7884 ft 300 kts 46°
2026-04-25 19:50 40.32355 -74.80920 7449 ft 293 kts 46°
2026-04-25 19:50 40.33740 -74.78973 7246 ft 292 kts 46°
2026-04-25 19:50 40.35119 -74.77027 7058 ft 291 kts 45°
2026-04-25 19:51 40.36484 -74.75110 6850 ft 291 kts 45°
2026-04-25 19:51 40.37863 -74.73172 6641 ft 291 kts 45°
2026-04-25 19:51 40.39239 -74.71228 6428 ft 291 kts 46°
2026-04-25 19:51 40.40626 -74.69289 6221 ft 290 kts 47°
2026-04-25 19:52 40.41978 -74.67317 6001 ft 291 kts 54°
2026-04-25 19:52 40.42829 -74.64946 5791 ft 285 kts 76°
2026-04-25 19:52 40.43402 -74.62466 5594 ft 284 kts 76°
2026-04-25 19:52 40.43974 -74.59985 5403 ft 283 kts 76°
2026-04-25 19:53 40.44536 -74.57553 5200 ft 282 kts 77°
2026-04-25 19:53 40.45109 -74.55096 4999 ft 279 kts 77°
2026-04-25 19:53 40.45674 -74.52680 4793 ft 274 kts 77°
2026-04-25 19:53 40.46236 -74.50315 4600 ft 269 kts 77°
2026-04-25 19:54 40.46785 -74.47991 4409 ft 264 kts 77°
2026-04-25 19:54 40.47324 -74.45705 4246 ft 259 kts 77°
2026-04-25 19:54 40.47852 -74.43464 4077 ft 254 kts 77°
2026-04-25 19:54 40.48196 -74.42005 3963 ft 252 kts 77°
2026-04-25 19:55 40.48883 -74.39092 3729 ft 247 kts 78°
2026-04-25 19:55 40.49388 -74.36942 3564 ft 243 kts 78°
2026-04-25 19:55 40.49885 -74.34832 3367 ft 240 kts 77°
2026-04-25 19:55 40.50374 -74.32749 3196 ft 237 kts 77°
2026-04-25 19:56 40.50850 -74.30728 3015 ft 232 kts 77°
2026-04-25 19:56 40.51342 -74.28738 2843 ft 227 kts 70°
2026-04-25 19:56 40.52365 -74.27162 2667 ft 233 kts 37°
2026-04-25 19:56 40.53822 -74.26251 2505 ft 230 kts 28°
2026-04-25 19:57 40.55253 -74.25410 2342 ft 218 kts 31°
2026-04-25 19:57 40.56571 -74.24579 2161 ft 202 kts 32°
2026-04-25 19:57 40.57789 -74.23799 1983 ft 187 kts 32°
2026-04-25 19:57 40.58913 -74.23078 1858 ft 178 kts 33°
2026-04-25 19:58 40.59994 -74.22388 1741 ft 166 kts 33°
2026-04-25 19:58 40.61010 -74.21738 1614 ft 159 kts 34°
2026-04-25 19:58 40.62004 -74.21101 1407 ft 158 kts 33°
2026-04-25 19:58 40.62984 -74.20475 1198 ft 155 kts 32°
2026-04-25 19:59 40.63939 -74.19866 967 ft 148 kts 33°
2026-04-25 19:59 40.64884 -74.19261 754 ft 151 kts 33°
2026-04-25 19:59 40.65812 -74.18668 545 ft 150 kts 32°
2026-04-25 19:59 40.66749 -74.18074 336 ft 148 kts 33°
2026-04-25 20:00 40.67666 -74.17485 137 ft 146 kts 32°
2026-04-25 20:00 40.68269 -74.17096 34 ft 145 kts 28°
2026-04-25 20:00 40.69308 -74.16448 23 ft 99 kts 23°
2026-04-25 20:00 40.69786 -74.16138 20 ft 47 kts 26°
2026-04-25 20:01 40.70233 -74.15887 22 ft 21 kts 333°
2026-04-25 20:01 40.70256 -74.16003 21 ft 13 kts 274°
2026-04-25 20:01 40.70263 -74.16133 23 ft 15 kts 274°
2026-04-25 20:02 40.70273 -74.16311 21 ft 21 kts 274°
2026-04-25 20:02 40.70220 -74.16459 22 ft 20 kts 197°
2026-04-25 20:02 40.70088 -74.16485 20 ft 19 kts 199°
2026-04-25 20:02 40.69972 -74.16559 20 ft 18 kts 206°
2026-04-25 20:03 40.69858 -74.16630 20 ft 18 kts 206°
2026-04-25 20:03 40.69782 -74.16761 21 ft 19 kts 243°
2026-04-25 20:03 40.69680 -74.16864 21 ft 19 kts 213°
2026-04-25 20:03 40.69617 -74.17006 21 ft 18 kts 249°
2026-04-25 20:04 40.69641 -74.17129 21 ft 15 kts 335°
2026-04-25 20:04 40.69730 -74.17198 21 ft 15 kts 322°
2026-04-25 20:04 40.69783 -74.17303 21 ft 12 kts 251°
2026-04-25 20:04 40.69720 -74.17374 21 ft 12 kts 220°
2026-04-25 20:05 40.69649 -74.17455 23 ft 15 kts 221°
2026-04-25 20:05 40.69585 -74.17540 21 ft 11 kts 245°
2026-04-25 20:05 40.69593 -74.17594 21 ft 2 kts 303°
2026-04-25 20:05 40.69595 -74.17598 21 ft 0 kts 303°